Temp
7 7 7 7 7 8 8 9 9 9 8 6 7 6 6 7 7 8 3 4 4 2 0 0 1 2 1 4 3 1 1 0 1 1 2 3 2 1 -0 1 1 1 1 1 0 -1 -1 -2 -3 -4 -5 -5 -5 -5
7 7 7 7 7 7 7 8 8 7 6 5 4 3 5 6 6 7 2 1 3 0 -1 -2 -3 -3 -2 -1 1 -0 1 1 2 2 0 1 0 -1 -0 1 -1 -1 -0 -1 -0 -0 -2 -2 -3 -3 -5 -6 -5 -6
6 7 7 7 7 7 7 8 8 6 5 4 3 2 3 4 5 6 2 2 0 0 -1 1 -1 -3 -1 -1 -1 1 0 -0 -1 -3 -0 -0 -1 -0 -0 1 -0 -2 -4 -3 -3 -1 -2 -3 -3 -4 -5 -6 -6 -6
5 6 7 7 7 7 7 7 8 7 4 4 2 1 1 3 4 5 4 2 1 -0 -1 -2 -2 -3 -3 -2 -1 -1 -2 -3 -3 -1 -1 -1 -1 -1 0 -2 -2 -3 -4 -3 -2 -1 -2 -4 -4 -5 -6 -6 -6 -7
5 5 6 7 7 7 7 7 8 6 3 2 1 1 1 2 3 3 3 2 2 2 -1 -2 -2 -4 -3 -2 -2 -2 -2 -1 -1 -2 -2 -1 -1 -2 -3 -3 -2 -3 -3 -3 -2 -4 -6 -5 -5 -6 -7 -7 -8 -8
5 5 5 6 7 7 8 7 7 5 3 2 1 0 1 2 2 3 3 1 2 0 -2 -2 -3 -3 -3 -2 -2 -2 -2 -1 -1 -1 -1 -2 -3 -3 -3 -1 -4 -4 -6 -7 -4 -6 -6 -6 -6 -7 -8 -8 -9 -9
5 5 5 6 6 7 7 7 5 3 2 1 -0 -1 -1 0 2 1 1 -0 1 1 -2 -4 -3 -4 -4 -3 -3 -2 -2 -1 -1 -1 -2 -1 -3 -3 -3 -2 -3 -4 -4 -5 -5 -8 -7 -6 -7 -8 -9 -9 -10 -10
5 5 5 6 6 6 7 7 4 2 1 -0 -1 -1 -1 1 1 -0 -0 0 1 -0 -1 -2 -4 -3 -5 -2 -2 -4 -2 -1 -2 -2 -3 -2 -4 -4 -4 -2 -4 -4 -5 -5 -6 -7 -8 -8 -8 -8 -9 -9 -10 -10
5 5 6 6 6 6 7 4 2 1 -0 -1 -2 0 0 2 -0 -2 -0 0 1 -0 -2 -2 -2 -2 -4 -4 -3 -3 -3 -2 -3 -2 -3 -3 -2 -4 -2 -4 -4 -4 -7 -7 -7 -7 -8 -8 -8 -9 -10 -10 -11 -11
5 5 5 6 6 6 5 2 1 -0 -1 -2 -2 -2 -2 -4 -1 -0 -1 -1 -3 -5 -4 -4 -4 -5 -4 -4 -5 -4 -5 -3 -3 -4 -5 -4 -3 -3 -4 -4 -5 -6 -7 -8 -10 -8 -8 -9 -9 -10 -11 -11 -11 -11
5 5 5 5 5 5 2 1 -0 -1 -3 -2 -3 -3 -5 -4 -2 -3 -2 -0 -3 -3 -5 -7 -5 -5 -6 -3 -4 -7 -4 -5 -4 -4 -5 -3 -3 -2 -4 -5 -6 -7 -8 -10 -10 -11 -11 -12 -12 -12 -12 -11 -11 -11
5 5 5 5 5 3 1 0 -1 -2 -2 -2 -3 -4 -4 -4 -2 -0 -1 -5 -4 -1 -8 -5 -6 -5 -7 -6 -5 -8 -5 -6 -3 -6 -5 -3 -1 -3 -5 -5 -6 -8 -9 -10 -11 -12 -12 -13 -13 -12 -12 -11 -12 -12
5 5 5 5 3 2 0 -1 -2 -3 -3 -3 -3 -4 -3 -4 -1 -0 -2 -3 -4 -6 -7 -7 -7 -7 -8 -7 -8 -6 -5 -4 -7 -6 -4 -2 -3 -4 -5 -6 -7 -8 -9 -10 -11 -11 -12 -12 -12 -12 -12 -12 -13 -14
5 5 5 4 2 0 -0 -2 -2 -2 -2 -2 -2 -3 -2 -2 -1 0 1 -2 -5 -5 -5 -6 -7 -5 -7 -7 -8 -5 -8 -8 -5 -5 -4 -1 -4 -5 -6 -7 -8 -8 -9 -11 -11 -12 -12 -12 -13 -13 -13 -13 -14 -14
5 4 5 3 1 -0 -2 -2 -3 -3 -4 -3 -1 -1 -4 -6 -7 -7 -7 -7 -6 -6 -7 -7 -7 -6 -8 -8 -8 -8 -8 -5 -4 -2 -1 -2 -5 -8 -8 -8 -9 -9 -10 -11 -12 -13 -13 -13 -14 -13 -13 -13 -13 -14
4 4 3 1 -1 -2 -2 -3 -4 -5 -6 -5 -5 -5 -6 -5 -7 -7 -7 -8 -7 -7 -6 -5 -7 -6 -7 -7 -7 -5 -4 -4 -2 -3 -3 -5 -8 -9 -10 -10 -10 -11 -11 -12 -12 -13 -13 -13 -14 -13 -13 -13 -13 -13
3 1 0 -1 -2 -3 -3 -3 -5 -6 -6 -5 -6 -5 -5 -4 -5 -6 -6 -7 -8 -5 -5 -5 -4 -5 -10 -7 -5 -5 -4 -2 -3 -4 -5 -6 -7 -8 -10 -10 -11 -11 -12 -12 -12 -13 -13 -13 -13 -14 -13 -12 -13 -13
0 -1 -1 -3 -3 -3 -4 -6 -6 -6 -6 -6 -5 -7 -7 -6 -7 -8 -10 -9 -7 -7 -6 -5 -10 -8 -5 -4 -4 -3 -5 -5 -5 -4 -5 -7 -9 -10 -10 -10 -10 -11 -12 -12 -12 -12 -13 -13 -13 -12 -12 -12 -12 -11
-1 -2 -3 -3 -1 -3 -5 -7 -6 -7 -7 -8 -8 -8 -8 -9 -10 -10 -10 -12 -11 -10 -10 -8 -6 -5 -4 -4 -2 -4 -5 -5 -5 -6 -7 -9 -9 -10 -10 -11 -11 -11 -11 -12 -12 -12 -11 -12 -12 -12 -12 -12 -12 -11
-2 -3 -3 -2 -1 -5 -6 -7 -6 -6 -6 -8 -8 -8 -9 -9 -9 -9 -9 -9 -8 -8 -7 -7 -4 -2 -3 -4 -5 -4 -5 -5 -6 -6 -5 -7 -9 -10 -11 -10 -10 -10 -10 -11 -11 -11 -11 -11 -11 -12 -12 -12 -11 -12
-3 -3 -3 -2 -5 -8 -8 -7 -8 -7 -8 -8 -9 -9 -10 -9 -9 -9 -9 -10 -8 -8 -6 -6 -5 -6 -9 -10 -8 -7 -7 -7 -5 -3 -3 -5 -8 -9 -9 -10 -10 -10 -10 -10 -10 -10 -10 -11 -11 -12 -13 -13 -13 -13
-3 -3 -2 -5 -8 -9 -9 -11 -8 -9 -9 -9 -9 -8 -8 -8 -9 -10 -13 -10 -8 -6 -7 -7 -7 -8 -11 -11 -10 -9 -7 -7 -7 -7 -7 -7 -7 -8 -9 -9 -10 -10 -10 -10 -11 -11 -11 -12 -12 -13 -13 -13 -13 -14
-2 -0 -3 -6 -7 -7 -9 -11 -7 -7 -6 -9 -10 -8 -10 -10 -13 -16 -11 -9 -8 -8 -9 -10 -11 -11 -8 -9 -9 -9 -9 -8 -8 -8 -8 -8 -8 -9 -10 -10 -10 -10 -10 -10 -12 -12 -12 -12 -12 -12 -13 -14 -14 -14
-1 -6 -6 -6 -6 -9 -9 -8 -8 -8 -8 -7 -6 -9 -11 -12 -15 -12 -8 -7 -7 -13 -12 -12 -11 -10 -11 -11 -9 -8 -9 -8 -9 -9 -9 -9 -9 -9 -10 -10 -11 -11 -12 -12 -13 -13 -13 -13 -13 -13 -14 -14 -14 -14
-2 -6 -6 -7 -9 -7 -7 -7 -7 -5 -7 -7 -8 -10 -13 -16 -10 -10 -8 -5 -9 -10 -10 -12 -11 -8 -6 -6 -8 -8 -8 -8 -9 -9 -9 -10 -10 -11 -11 -11 -12 -12 -12 -13 -13 -13 -13 -13 -14 -14 -14 -14 -13 -13
-4 -8 -5 -5 -7 -4 -5 -5 -6 -6 -8 -9 -10 -16 -16 -11 -9 -6 -6 -7 -9 -9 -10 -11 -10 -9 -9 -9 -8 -9 -8 -9 -9 -10 -10 -10 -10 -11 -11 -11 -12 -13 -13 -13 -14 -13 -13 -14 -14 -14 -14 -14 -13 -13
-4 -7 -8 -8 -7 -7 -7 -8 -8 -6 -7 -8 -12 -14 -11 -8 -6 -5 -8 -10 -9 -11 -9 -9 -8 -8 -7 -9 -9 -9 -9 -10 -10 -10 -10 -11 -11 -11 -12 -13 -13 -13 -14 -14 -14 -14 -14 -14 -14 -14 -14 -14 -14 -14
-7 -7 -6 -8 -8 -8 -6 -6 -6 -6 -6 -10 -10 -10 -8 -5 -4 -8 -10 -13 -12 -12 -10 -9 -9 -8 -8 -9 -9 -10 -11 -11 -11 -11 -11 -12 -12 -12 -13 -13 -13 -14 -14 -14 -14 -14 -14 -14 -14 -14 -14 -14 -14 -14
-8 -8 -7 -10 -10 -10 -11 -8 -7 -11 -12 -9 -6 -7 -7 -10 -13 -13 -14 -14 -12 -12 -12 -12 -12 -10 -10 -10 -11 -11 -11 -11 -12 -15 -14 -11 -13 -13 -13 -13 -14 -14 -14 -14 -14 -14 -13 -13 -13 -13 -14 -14 -14 -14
-9 -11 -9 -10 -9 -9 -14 -17 -15 -16 -16 -15 -15 -13 -12 -13 -15 -15 -14 -13 -13 -12 -11 -10 -10 -10 -12 -12 -12 -12 -12 -11 -11 -11 -12 -12 -12 -12 -13 -13 -14 -14 -14 -14 -14 -14 -14 -13 -13 -14 -14 -14 -14 -15
-12 -10 -11 -11 -13 -16 -18 -20 -20 -18 -17 -16 -17 -13 -11 -14 -15 -14 -14 -13 -12 -12 -12 -12 -12 -12 -12 -12 -12 -12 -13 -11 -11 -11 -12 -12 -12 -13 -13 -13 -14 -14 -14 -14 -14 -14 -14 -14 -14 -14 -14 -15 -15 -15
-12 -12 -10 -10 -13 -18 -19 -17 -15 -13 -14 -12 -12 -15 -13 -12 -10 -14 -13 -13 -13 -14 -12 -12 -11 -11 -11 -11 -11 -10 -10 -9 -10 -11 -12 -12 -13 -13 -13 -13 -13 -13 -13 -14 -14 -14 -14 -14 -15 -15 -15 -15 -15 -15
-16 -15 -15 -13 -13 -13 -16 -14 -12 -11 -12 -12 -13 -17 -17 -15 -9 -13 -13 -13 -13 -12 -12 -11 -11 -11 -11 -11 -11 -11 -11 -11 -11 -12 -13 -13 -13 -13 -13 -13 -13 -13 -13 -14 -14 -14 -14 -14 -14 -14 -15 -15 -15 -15
Height
809 809 809 809 809 807 807 806 804 804 805 809 813 817 819 819 821 823 829 832 834 850 865 867 866 867 869 866 865 878 883 885 884 883 876 867 876 876 884 877 878 876 875 870 873 875 872 884 886 888 891 891 891 890
801 801 803 806 803 802 801 801 800 799 800 805 810 814 818 820 822 822 828 833 833 848 866 868 871 871 871 872 872 878 878 877 875 875 884 880 880 888 882 872 887 885 881 883 878 870 882 885 887 887 890 893 891 890
792 795 798 797 797 797 798 796 797 796 799 801 806 811 817 818 822 823 827 831 837 853 868 868 871 873 872 870 873 873 879 880 883 886 882 883 885 882 878 872 879 888 896 890 890 881 882 885 889 891 891 891 890 889
786 787 788 791 791 792 793 790 791 790 792 795 802 808 814 816 821 823 827 832 835 847 859 872 872 873 875 872 872 876 879 882 887 888 886 885 884 885 876 884 886 890 894 889 884 877 883 886 888 890 891 891 889 888
778 778 779 782 786 786 786 787 786 783 789 794 801 807 809 813 820 824 828 832 834 840 856 871 874 875 876 875 874 876 882 883 886 888 887 884 884 888 889 891 881 886 883 884 876 888 892 889 889 890 891 890 889 887
770 770 772 773 779 778 779 782 782 780 786 794 803 806 810 815 819 826 831 836 835 837 850 868 876 877 877 876 876 879 883 887 889 885 885 886 890 890 886 876 885 886 891 896 891 895 894 891 890 890 890 889 887 885
762 761 764 767 771 773 773 778 779 778 784 794 802 803 810 816 822 821 826 831 834 838 848 871 873 879 879 879 877 881 884 887 889 889 886 883 887 891 887 880 882 884 887 892 894 896 891 889 889 890 889 887 886 883
753 754 757 760 763 766 767 771 775 781 787 793 800 804 813 820 825 827 827 832 835 839 846 860 874 876 879 876 878 884 884 886 890 889 890 884 890 889 884 875 881 885 887 889 891 892 893 892 890 888 887 885 883 880
747 749 750 753 756 759 763 769 776 783 787 796 800 809 817 823 830 830 830 836 837 841 850 856 860 864 877 878 881 887 888 884 891 886 887 889 877 880 871 877 880 882 887 888 889 889 889 889 888 887 886 885 883 880
739 742 744 748 752 752 758 766 773 783 790 797 805 811 824 827 829 832 835 837 839 846 852 859 863 870 874 874 883 887 891 886 886 889 893 885 870 870 875 877 881 884 886 888 890 886 887 888 887 886 885 884 881 878
732 735 737 741 744 743 754 766 774 783 792 797 804 816 823 825 829 833 838 836 846 848 856 864 861 867 877 871 878 892 888 893 884 887 889 873 867 865 872 876 879 882 884 886 886 887 888 889 887 885 883 881 878 876
726 730 732 736 739 739 751 760 770 776 787 793 800 814 821 827 831 830 834 845 843 837 861 857 862 864 876 879 879 895 889 897 879 894 888 871 858 868 871 874 877 880 882 883 884 885 885 885 884 883 881 878 876 874
721 724 727 732 733 740 751 764 772 775 780 791 802 815 822 828 822 820 824 829 837 847 853 857 863 866 877 880 886 888 886 883 896 888 872 857 861 867 870 873 875 877 878 880 881 882 882 882 880 879 877 876 874 871
716 719 723 726 729 739 752 762 772 772 779 789 800 814 810 815 806 800 800 811 830 834 843 849 860 861 874 878 886 878 897 897 885 880 864 851 860 865 869 871 873 874 875 877 879 879 879 878 877 876 874 873 871 868
712 717 720 725 731 743 754 766 772 774 781 791 796 794 811 816 818 822 823 826 832 839 843 850 858 861 875 883 886 888 892 877 866 854 847 853 861 865 868 869 870 871 873 874 876 876 876 875 874 873 871 870 868 866
710 715 719 729 733 745 759 768 775 778 789 798 805 811 816 813 823 824 824 830 835 838 842 844 856 862 872 874 876 866 862 858 845 850 851 858 862 864 865 867 868 868 870 872 872 873 873 872 872 870 868 866 865 863
705 714 724 731 740 752 764 770 776 788 799 804 809 808 809 809 815 822 824 831 836 835 836 843 845 855 881 870 864 863 852 839 844 849 853 856 858 860 862 864 865 866 868 868 869 869 869 869 868 867 865 863 862 860
708 718 726 734 741 757 768 776 787 798 806 810 808 815 816 816 821 828 832 835 836 838 840 840 857 860 851 848 843 839 844 845 847 849 852 855 857 859 860 861 862 863 864 865 866 866 866 866 866 864 862 861 859 857
711 721 731 739 745 755 775 790 794 804 814 816 820 821 823 829 832 831 833 838 841 842 845 846 842 840 835 835 830 835 839 842 845 849 852 853 855 856 857 859 860 861 861 862 863 863 863 863 862 861 860 859 857 856
716 728 737 746 753 766 783 795 797 801 808 818 820 825 830 832 835 837 839 841 843 843 842 839 830 824 826 828 829 831 835 840 843 846 848 851 853 854 855 856 857 858 859 860 860 860 860 859 859 858 858 857 855 854
726 736 742 748 760 772 788 796 803 809 814 818 827 829 834 836 838 840 842 844 842 839 832 826 825 826 828 828 830 833 835 837 839 840 842 847 850 851 852 853 855 856 857 857 857 856 856 856 855 855 855 854 854 852
734 742 749 756 770 784 796 803 805 812 818 823 827 827 830 831 836 843 848 843 836 825 825 822 823 824 828 831 831 832 833 836 839 841 844 845 847 849 850 851 852 853 853 853 853 853 853 853 853 853 852 852 851 849
737 746 755 764 777 787 806 806 805 810 812 823 826 824 832 836 845 851 844 833 823 818 818 820 822 824 827 829 829 831 833 835 838 841 843 844 845 846 847 848 849 849 850 850 850 850 850 850 850 850 850 849 848 847
742 752 765 773 781 800 805 805 806 809 816 817 814 827 839 843 850 845 831 819 812 815 818 819 821 825 827 827 828 829 831 834 838 840 840 841 842 843 844 845 845 846 847 847 847 848 848 848 848 848 848 848 847 846
747 769 770 781 787 787 792 800 803 802 809 815 818 831 839 848 835 836 821 805 808 811 812 816 819 820 820 822 825 827 829 832 835 837 837 838 840 841 841 842 843 844 844 844 845 845 846 846 846 846 846 846 845 844
758 773 769 769 780 776 783 788 790 795 805 814 823 840 842 833 829 814 805 798 801 803 807 809 812 817 820 821 823 825 828 830 832 834 835 835 837 838 840 841 842 842 842 843 843 844 844 844 844 844 844 844 843 842
759 770 775 777 775 777 782 788 791 787 796 804 821 835 827 818 808 797 797 798 798 799 801 805 809 813 815 818 821 824 826 828 830 832 833 834 835 836 838 839 839 840 840 841 842 842 842 843 843 842 842 842 841 840
765 769 766 775 777 779 778 780 783 783 787 800 806 812 804 794 788 794 796 798 798 800 802 806 810 813 814 817 820 823 825 827 829 831 832 833 834 834 835 836 837 838 839 839 840 840 841 841 840 840 840 839 838 837
767 770 768 782 782 786 789 783 784 794 798 795 788 790 792 795 798 797 798 799 800 802 805 808 812 813 815 818 821 823 824 826 828 830 831 832 833 834 834 835 836 837 837 838 838 839 839 838 837 838 838 838 837 836
772 776 775 782 781 784 800 804 801 804 803 802 801 799 798 799 799 799 799 800 802 804 807 809 810 813 816 818 820 823 824 825 826 827 828 830 831 832 832 834 835 836 836 836 836 836 836 836 836 836 836 836 835 834
778 776 781 787 796 803 806 807 806 804 803 803 803 800 797 800 800 800 801 802 804 805 807 809 810 812 814 816 818 820 822 822 823 824 826 828 829 830 832 833 834 835 835 835 835 835 835 835 835 835 834 834 834 833
779 781 778 785 798 808 808 806 804 802 802 800 801 803 802 800 799 801 799 800 802 804 806 808 809 810 813 815 817 818 818 819 821 823 826 827 829 830 831 832 833 833 833 833 833 833 832 832 833 833 832 832 832 831
789 789 791 793 799 801 805 803 801 800 802 802 805 811 810 807 798 797 796 798 801 802 804 806 809 810 812 814 815 817 818 819 821 823 825 827 828 830 830 830 830 830 831 831 831 831 830 830 830 830 830 830 829 829
Wind_Speed
30 28 27 27 25 26 20 21 25 34 32 26 23 20 18 16 15 12 11 9 6 4 4 3 2 3 3 4 4 6 4 2 4 4 3 2 3 1 3 2 3 4 4 5 3 4 8 5 3 4 4 9 10 13
30 30 28 28 27 25 22 20 24 36 29 26 21 19 16 16 12 12 9 17 17 12 4 7 9 6 4 4 4 4 2 2 2 3 1 1 3 2 3 3 2 3 2 3 3 4 2 1 5 7 3 7 10 13
28 29 29 27 25 26 26 18 22 34 30 26 25 22 17 15 13 7 22 20 13 7 5 4 4 6 4 6 3 2 1 3 3 2 1 1 4 0 3 4 2 4 2 3 4 3 2 6 4 1 4 11 12 12
28 28 27 28 24 24 25 23 26 33 33 28 25 23 21 19 12 13 17 15 11 9 4 3 2 4 5 5 4 3 8 7 7 1 1 2 3 2 1 2 3 3 4 3 9 10 7 4 3 7 10 13 12 16
29 28 27 27 27 24 22 22 30 34 32 28 29 25 24 20 18 14 18 11 9 3 4 4 5 3 4 6 10 11 9 6 2 2 2 3 0 2 1 2 6 5 2 3 4 5 3 9 7 12 10 10 13 13
28 27 27 26 27 25 22 24 31 39 32 30 27 26 22 22 19 21 3 4 9 11 5 4 3 3 4 8 10 8 6 3 1 2 1 2 2 2 2 4 3 4 3 2 3 3 8 11 10 7 9 13 15 15
28 27 27 26 25 26 22 25 39 36 35 33 30 29 26 25 16 6 3 9 15 8 4 4 3 2 2 3 4 3 3 1 2 0 3 1 2 1 2 5 6 5 4 5 6 4 6 2 5 13 13 13 14 15
27 27 26 26 24 25 19 35 42 37 37 36 33 28 25 17 14 9 17 16 10 8 5 4 3 4 1 2 3 2 2 2 2 1 2 2 2 2 4 4 5 4 3 6 5 6 8 11 11 10 11 12 13 12
26 27 26 25 24 25 22 44 39 39 40 38 34 30 20 6 2 7 15 9 7 6 4 2 6 4 2 3 2 2 1 3 1 2 1 2 3 5 3 5 6 4 3 3 5 7 9 8 8 9 10 11 10 11
25 26 24 25 25 23 46 48 46 44 42 43 31 6 3 3 19 16 4 2 3 5 3 3 2 3 2 3 2 2 1 0 2 1 1 3 4 2 4 4 3 3 3 3 3 4 4 7 7 8 8 11 12 14
25 25 23 24 20 46 53 51 49 49 41 12 4 3 10 17 3 3 2 1 1 2 1 2 2 5 1 3 3 1 1 1 3 2 2 3 3 4 6 6 5 5 5 7 7 7 7 9 8 8 11 11 13 13
24 24 23 22 37 59 59 57 56 30 17 13 19 19 9 2 1 3 2 2 3 4 3 4 4 4 3 1 3 2 2 1 2 1 2 3 2 6 6 4 5 5 6 6 6 9 9 9 10 11 12 13 13 13
24 23 24 17 57 61 62 58 33 40 49 16 6 4 3 2 4 6 8 3 4 7 6 5 4 3 3 2 4 2 4 2 0 2 3 3 5 6 4 3 4 6 6 6 6 7 8 9 9 10 12 12 12 14
24 22 19 47 63 64 63 42 51 26 8 3 5 7 5 5 5 2 2 5 4 7 9 7 5 3 2 3 2 4 2 1 3 3 4 3 7 5 5 5 4 5 7 6 7 7 7 8 9 10 11 12 13 15
22 19 26 59 63 62 50 49 25 8 4 3 2 4 4 3 5 4 6 5 4 8 7 6 5 3 2 4 1 3 3 4 5 4 2 3 5 4 4 4 6 6 6 7 7 7 7 9 10 12 11 12 12 14
19 26 39 57 60 55 53 34 9 4 5 3 3 3 4 4 3 3 6 8 5 6 3 3 4 3 2 3 4 5 4 6 3 3 3 5 4 4 4 7 8 7 7 7 7 7 8 10 11 12 13 12 11 12
38 13 54 57 56 54 37 8 4 5 4 2 3 4 3 5 5 3 6 4 8 3 3 3 4 2 4 2 3 4 4 2 4 4 3 4 4 4 8 7 6 7 8 8 8 8 10 10 11 10 11 9 11 11
28 57 56 56 56 36 9 7 5 3 4 3 2 2 3 3 7 4 3 6 2 2 3 2 5 4 4 5 4 4 5 2 2 3 3 5 6 7 7 6 6 7 8 8 9 9 10 9 9 9 8 8 10 8
55 56 55 53 34 11 4 4 4 4 4 3 3 4 4 4 7 10 10 6 5 4 5 2 2 3 3 3 3 4 4 3 4 3 3 7 8 8 7 6 7 7 8 9 8 8 8 9 9 8 8 7 8 8
62 56 46 37 18 6 4 3 3 4 3 2 3 3 3 4 3 5 5 3 2 1 2 3 4 2 3 3 3 2 4 7 5 4 3 5 7 8 7 6 5 5 6 6 8 9 9 8 8 7 7 7 9 9
48 42 34 20 9 12 4 2 4 2 4 4 5 2 4 3 3 2 2 0 1 2 3 3 2 1 3 3 5 5 10 11 4 3 2 3 7 7 5 6 6 6 7 7 8 8 9 8 7 6 6 6 7 7
29 32 12 9 6 5 4 7 4 3 3 4 3 2 4 3 3 2 0 1 3 3 3 3 2 3 3 3 8 9 6 11 6 4 4 5 5 4 5 6 6 7 8 8 8 8 8 7 6 6 6 6 7 8
30 14 6 5 5 4 3 1 2 1 4 4 2 3 2 2 1 0 2 3 3 4 5 3 3 4 4 5 6 7 9 9 6 7 7 6 4 5 5 5 6 7 7 7 6 6 7 6 6 5 5 6 6 7
12 6 4 3 4 4 3 2 2 3 3 2 3 4 3 2 2 2 3 3 2 3 6 8 7 5 3 3 4 7 10 10 7 7 7 5 5 5 5 5 5 6 7 5 5 5 5 5 5 5 5 5 6 6
5 3 3 4 2 5 4 4 3 3 3 3 4 3 3 2 3 3 3 2 3 4 4 9 8 6 2 2 4 6 8 11 9 7 6 7 5 3 4 4 4 5 5 4 5 5 5 5 5 5 4 5 6 9
5 1 1 3 3 4 6 6 6 5 4 3 2 3 2 3 3 5 3 3 3 4 6 9 8 4 3 7 4 4 6 9 8 5 3 4 5 4 2 2 2 2 3 3 3 4 5 5 5 5 5 5 7 7
4 2 2 1 2 4 4 3 2 3 4 6 5 5 4 5 6 3 1 2 1 4 11 15 15 9 5 9 9 6 6 9 6 5 5 4 3 3 4 3 3 3 3 3 3 4 4 5 5 5 5 6 6 7
3 2 5 4 3 1 4 3 4 5 3 4 6 6 9 7 4 1 1 4 6 11 13 13 12 9 10 10 10 12 10 10 8 5 3 2 1 2 4 4 4 3 5 5 4 4 6 6 7 6 6 7 8 8
2 2 3 4 3 3 2 1 2 1 1 4 2 3 3 1 1 1 3 8 12 14 16 15 12 11 10 10 11 10 9 12 10 3 2 1 1 2 3 3 3 2 3 3 3 5 6 7 10 7 7 7 8 8
2 2 3 2 2 2 2 2 1 1 2 2 2 0 1 1 0 3 8 12 11 11 12 11 14 12 10 12 10 9 11 11 9 5 3 3 3 3 5 3 2 1 1 1 2 3 4 5 3 4 6 6 6 7
0 1 3 4 3 2 1 2 2 1 1 1 1 1 1 1 1 4 7 10 10 11 12 11 11 10 10 14 14 12 9 11 9 7 5 3 3 3 3 3 3 3 4 5 6 5 5 4 5 5 6 6 6 6
2 3 2 3 2 1 1 1 1 1 2 0 2 1 0 0 1 5 7 13 12 12 13 11 11 10 13 12 12 9 6 8 10 7 6 4 3 3 3 3 4 7 9 8 7 6 7 7 7 7 7 7 6 7
2 2 2 4 3 2 2 1 1 1 2 1 2 2 1 2 4 0 6 14 11 12 13 12 10 8 13 12 11 8 7 9 9 7 6 4 1 3 8 9 8 8 7 7 7 6 6 6 7 7 7 7 7 7
Wind_Direction
264 270 271 270 272 260 271 267 260 249 241 227 220 205 203 193 180 172 120 128 116 95 88 14 66 147 142 201 174 125 146 189 180 213 243 209 254 143 281 298 267 244 254 232 247 274 262 148 182 260 342 321 324 323
263 264 267 267 266 267 265 267 261 231 217 212 199 182 182 170 170 161 105 112 105 79 90 96 80 61 33 15 119 165 22 134 148 204 241 302 226 185 299 277 207 257 293 331 284 2 112 320 282 304 331 310 321 320
260 260 263 265 265 263 259 264 253 216 206 203 190 173 182 176 179 185 134 128 97 106 102 134 75 43 71 66 99 163 166 102 155 20 86 335 245 242 238 249 272 190 154 257 334 82 7 321 337 17 320 325 319 318
261 259 258 262 262 256 251 262 242 221 203 203 183 170 171 169 173 156 141 147 106 113 115 129 101 55 32 46 73 81 117 93 108 160 135 214 255 180 302 356 282 33 150 262 259 271 315 114 322 325 321 317 318 320
259 257 256 259 258 255 250 255 235 210 191 171 165 164 166 164 157 153 153 151 140 97 121 127 120 57 52 81 88 97 114 118 152 158 188 213 232 230 131 282 248 171 201 240 308 349 277 296 330 322 317 317 322 321
256 255 254 252 256 255 245 246 229 194 174 167 163 157 160 151 155 134 102 151 148 121 111 135 82 78 80 104 96 92 91 78 236 206 194 151 60 275 261 268 120 172 172 199 298 307 289 290 305 314 315 316 316 310
255 251 252 249 248 248 242 240 194 176 166 160 155 145 152 157 165 103 126 155 148 123 96 112 125 94 78 105 80 89 77 127 282 190 226 175 156 250 267 263 129 174 211 259 267 298 279 304 315 314 307 311 311 308
253 248 247 245 243 246 234 211 186 164 156 148 142 142 142 145 111 83 111 132 125 97 80 120 107 156 344 123 114 48 163 205 185 300 203 212 140 219 253 221 166 180 250 267 264 232 263 293 299 301 310 313 313 315
247 244 242 241 235 236 215 176 159 152 145 141 131 127 112 130 68 130 110 115 95 83 117 145 149 154 165 95 85 113 303 212 71 241 176 240 182 226 238 182 192 206 215 265 276 271 279 279 294 305 314 315 311 313
243 242 239 233 231 227 179 162 151 146 140 132 129 92 120 106 132 128 88 75 36 22 42 98 181 118 198 130 102 154 327 256 232 121 292 237 255 149 177 164 167 190 217 218 264 285 289 292 304 310 310 306 302 303
241 239 232 230 246 175 158 151 146 140 137 141 113 81 126 143 113 41 105 183 134 117 68 93 77 127 33 133 123 37 167 188 232 129 258 225 252 185 160 177 192 210 213 219 237 267 268 269 283 295 303 305 304 310
236 233 226 230 183 160 155 152 148 143 155 147 110 112 122 132 91 154 169 116 214 190 156 145 121 98 111 106 110 136 192 206 233 102 247 249 173 143 164 189 205 210 211 229 237 254 270 273 276 283 290 298 305 304
231 227 222 234 164 155 153 151 152 131 122 105 83 94 177 189 180 202 182 181 181 169 166 158 125 107 123 92 85 162 186 195 127 220 239 245 146 167 168 188 212 212 213 231 244 253 267 277 283 281 287 294 299 301
224 225 234 175 160 154 153 149 143 128 100 94 135 144 211 192 222 184 147 113 106 131 137 117 105 101 109 100 121 159 86 257 226 235 235 186 186 178 180 193 200 221 220 228 248 260 267 280 288 290 285 294 298 300
217 217 191 161 153 150 147 148 144 96 82 94 161 180 193 90 61 84 102 103 105 129 128 112 89 96 99 111 119 123 156 225 227 230 183 150 148 155 187 201 217 225 219 237 249 256 271 284 290 294 299 299 298 304
205 178 160 153 146 144 146 149 121 79 64 68 78 110 133 98 129 131 107 117 131 128 109 75 107 115 119 138 167 205 182 221 203 199 159 143 169 189 202 210 222 227 226 241 251 266 277 279 283 292 300 301 299 305
151 132 147 142 137 138 135 111 74 53 74 74 74 87 68 80 122 121 134 123 151 171 115 133 129 112 114 166 202 199 214 202 159 160 164 179 184 193 206 210 222 227 234 246 259 269 276 284 286 289 288 301 302 305
133 139 139 135 133 123 88 51 75 76 81 52 83 78 59 54 119 112 105 121 138 104 153 126 131 162 185 182 203 206 206 158 146 146 171 176 199 207 204 214 228 231 241 252 260 273 275 273 271 278 291 302 308 307
140 138 137 140 138 97 83 58 44 95 72 85 91 60 73 84 55 92 100 83 71 105 122 155 148 191 208 212 188 153 155 170 175 181 203 209 211 209 210 226 235 236 244 251 255 256 264 265 263 275 284 293 294 305
136 134 134 134 127 90 96 63 63 87 101 101 83 67 67 70 100 109 108 105 114 153 169 193 216 203 194 188 183 130 149 155 142 158 180 192 205 204 212 211 221 232 241 250 259 263 259 265 263 260 266 276 284 297
124 134 123 105 66 64 78 82 69 69 108 85 123 93 93 109 110 139 124 39 185 222 240 218 226 165 140 114 155 153 149 155 176 181 152 162 180 188 193 216 227 228 241 253 258 266 271 263 267 257 263 276 280 285
134 137 105 59 81 73 81 24 96 93 75 118 137 125 121 129 133 126 34 219 235 233 211 196 195 154 148 202 195 178 166 176 171 164 166 159 167 190 216 220 216 238 247 253 254 262 266 262 255 251 256 277 282 290
123 117 67 77 83 58 88 344 107 84 130 159 170 109 85 104 87 287 229 235 264 226 196 178 155 167 176 170 162 180 188 177 190 216 218 212 216 228 232 233 232 244 259 260 243 251 254 254 251 249 261 282 291 295
110 58 66 76 84 110 158 117 95 105 117 161 128 110 155 144 167 213 253 236 215 142 185 177 154 135 134 150 199 203 199 201 220 235 231 217 227 241 238 240 241 244 244 251 247 243 242 242 244 246 265 283 289 290
85 31 75 78 103 123 101 119 144 160 123 149 135 147 164 172 182 204 239 244 185 187 173 171 183 207 181 153 165 196 206 208 209 228 241 230 224 236 248 254 258 257 255 230 238 238 235 233 236 247 261 275 285 300
81 20 128 131 138 165 167 151 172 145 128 128 95 102 161 164 182 234 220 201 183 170 178 180 170 172 207 210 143 163 203 206 204 199 209 196 199 211 224 220 229 231 233 220 219 228 232 233 238 252 272 284 300 315
125 144 92 353 90 113 108 82 94 126 141 160 164 166 160 185 225 239 159 187 165 167 172 179 178 175 171 172 181 177 171 170 177 170 155 165 188 207 216 219 223 222 215 220 249 249 244 242 249 258 272 291 300 305
91 170 147 146 107 11 119 120 148 176 146 141 141 178 177 194 198 128 71 157 139 136 138 147 152 147 130 137 160 164 159 160 156 151 143 142 225 236 229 225 224 220 258 264 262 261 255 252 253 258 275 291 302 309
83 85 106 70 77 60 51 76 122 75 71 189 163 165 205 49 34 81 143 145 138 134 132 137 135 138 136 145 159 170 173 171 164 127 140 156 209 237 193 180 191 230 250 258 236 257 274 270 265 264 274 285 299 310
93 349 98 85 75 79 47 351 56 6 341 8 346 234 189 122 57 136 147 150 152 155 153 151 153 156 171 173 180 186 188 189 192 176 160 183 205 189 183 195 208 203 186 311 299 272 258 252 214 241 282 294 304 314
60 121 84 57 76 35 22 339 293 277 347 8 348 311 75 16 220 184 176 178 175 169 166 164 176 193 194 192 189 182 196 198 193 191 185 173 172 175 177 179 206 228 284 302 299 289 278 264 263 267 280 287 297 303
41 55 114 106 103 126 314 326 10 38 3 336 23 343 347 197 221 198 207 189 184 191 199 200 205 223 205 192 186 184 183 179 180 180 180 178 177 177 196 251 244 271 290 294 286 280 269 264 264 267 274 281 290 304
97 81 70 115 123 193 176 168 37 93 33 46 38 4 354 308 225 257 189 191 205 215 213 212 205 195 181 178 177 173 159 155 159 159 157 147 158 259 281 288 277 275 274 270 272 274 276 272 268 268 269 273 283 294